Miscellaneous Local Product
Issued by NWS North Platte, NE

Home | Current Version | Previous Version | Text Only | Print | Product List | Glossary On
Versions: 1 2 3 4 5 6 7 8 9 10 11 12 13 14 15 16 17 18 19 20 21 22 23 24 25 26 27 28 29 30 31 32 33 34 35 36 37 38 39 40 41 42 43 44 45 46 47 48 49 50
000
AXUS43 KLBF 031110
MISLBF


WESTERN AND NORTH CENTRAL NEBRASKA HOURLY WEATHER ROUNDUP
NATIONAL WEATHER SERVICE NORTH PLATTE NE
500 AM CST SAT DEC 03 2016

NOTE: "FAIR" INDICATES FEW OR NO CLOUDS BELOW 12,000 FEET WITH NO
SIGNIFICANT WEATHER AND/OR OBSTRUCTIONS TO VISIBILITY.

NOTE: STATIONS NOT REPORTING VARIABLES SUCH AS SKY/WEATHER OR
PRESSURE ARE PROVIDED BY RAWS AND APRS NETWORKS AND ARE NOT UNDER
NATIONAL WEATHER SERVICE QUALITY CONTROL.

...OBSERVATIONS IN AND NEAR THE EASTERN PANHANDLE OF NEBRASKA...

CITY           SKY/WX    TMP DP  RH WIND       PRES   REMARKS
PINE RIDGE     CLOUDY    30  24  78 S15G25    30.02F WCI  19
CHADRON        CLOUDY    32  23  69 SW14      30.02F WCI  22
ALLIANCE       CLOUDY    27  22  81 S7        30.05F WCI  19
SIDNEY         CLEAR     24  19  81 SW12      30.08F WCI  13
CRESCENT LAKE    N/A     27  21  78 S6          N/A  WCI  21
$$

...OBSERVATIONS IN NORTHERN NEBRASKA AND FAR SOUTHERN SOUTH DAKOTA...

CITY           SKY/WX    TMP DP  RH WIND       PRES   REMARKS
WINNER         CLOUDY    27  22  81 S9        30.13  WCI  18
VALENTINE      CLOUDY    26  22  84 CALM      30.12F
THEDFORD       CLOUDY    33  26  72 S9        30.14F WCI  26
AINSWORTH      CLOUDY    31  27  83 S13       30.14F WCI  21
O`NEILL        CLOUDY    26  24  91 S6        30.19F WCI  19
ORD            CLOUDY    27  22  81 E5        30.20  WCI  22
BROKEN BOW     CLOUDY    31  27  85 S7        30.18F WCI  24
VALENTINE NWR    N/A     27  23  84 S7          N/A  WCI  20
BUTTE            N/A     21  19  91 SE3         N/A
HALSEY           N/A     31  24  74 S7G14       N/A  WCI  24
CHAMBERS         N/A     25  22  88 CALM        N/A
EWING            N/A     25  23  92 CALM        N/A
$$

...OBSERVATIONS IN SOUTHWEST NEBRASKA AND FAR NORTHEAST COLORADO...

CITY           SKY/WX    TMP DP  RH WIND       PRES   REMARKS
HOLYOKE        FAIR      27  21  80 S6        30.13F WCI  20
IMPERIAL       PTCLDY    29  24  82 S8        30.14F WCI  21
OGALLALA       CLOUDY    31  24  75 CALM      30.13F
NORTH PLATTE   CLOUDY    31  24  75 S6        30.16F WCI  25
MCCOOK         CLOUDY    23  19  85 SE8       30.20F WCI  14
STAPLETON        N/A     29  25  83 CALM        N/A
GOTHENBURG       N/A     31  24  75 E3          N/A
CALLAWAY         N/A     28  25  88 S8          N/A  WCI  20
$$

...OBSERVATIONS IN CENTRAL LINCOLN COUNTY AREA...

CITY           SKY/WX    TMP DP  RH WIND       PRES   REMARKS
N.P. AIRPORT   CLOUDY    31  24  75 S6        30.16F WCI  25
N.P. DOWNTOWN    N/A     31  24  76 CALM        N/A
N.P. HILLCREST   N/A     32  26  77 SW3         N/A
$$

...SOME OBSERVATIONS FROM AROUND THE REGION...

CITY           SKY/WX    TMP DP  RH WIND       PRES   REMARKS
LARAMIE        CLOUDY     8   2  76 SW17      29.97F WCI -10
CHEYENNE       CLOUDY    16   9  74 W12       30.00F WCI   3
DENVER         CLOUDY    19  13  77 SW6       30.04F WCI  11
AKRON          CLEAR     24  18  77 S13       30.08F WCI  12
SCOTTSBLUFF    CLOUDY    27  21  78 W5        30.07F WCI  22
RAPID CITY     CLEAR     21  17  84 S7        29.97F WCI  12
BISMARCK       CLEAR     18  17  96 SE9       30.07F WCI   7
PIERRE         CLEAR     20  18  92 SE8       30.11F WCI  10
SIOUX FALLS    CLOUDY    31  27  85 S6        30.27F WCI  25
OMAHA          PTCLDY    24  19  81 CALM      30.33F
GRAND ISLAND   CLOUDY    28  26  92 S5        30.24  WCI  23
KANSAS CITY    PTCLDY    29  25  85 NE5       30.30F WCI  24
WICHITA        CLOUDY    43  27  53 E8        30.21F
OKLAHOMA CITY  LGT RAIN  46  44  93 E7        30.18F
DALLAS         CLOUDY    49  45  86 NE13      30.09F
AMARILLO       CLOUDY    33  33 100 N12       30.13S FOG     WCI  24
DODGE CITY     LGT SNOW  33  32  96 CALM      30.21F FOG
HAYS           LGT RAIN  33  26  75 CALM      30.24F
GOODLAND       PTCLDY    28  17  63 S10       30.14F WCI  19
$$




USA.gov is the U.S. government's official web portal to all federal, state and local government web resources and services.